Regional Weather Roundup
Issued by NWS

Home | Current Version | Previous Version | Graphics & Text | Print | Product List | Glossary On
Versions: 1 2 3 4 5 6 7 8 9 10 11 12 13 14 15 16 17 18 19 20 21 22 23 24 25 26 27 28 29 30 31 32 33 34 35 36 37 38 39 40 41 42 43 44 45 46 47 48 49 50
000
ASUS43 KBIS 280810
RWRND

NORTH DAKOTA REGIONAL WEATHER ROUNDUP
NATIONAL WEATHER SERVICE BISMARCK ND
200 AM CST FRI NOV 28 2014

NOTE: "FAIR" INDICATES FEW OR NO CLOUDS BELOW 12,000 FEET WITH NO
SIGNIFICANT WEATHER AND/OR OBSTRUCTIONS TO VISIBILITY.


NDZ001>003-009>011-017-280900-
NORTHWEST NORTH DAKOTA

CITY           SKY/WX    TMP DP  RH WIND       PRES   REMARKS
WILLISTON      CLOUDY    16  13  88 SE5       29.79R WCI   9
MINOT          CLOUDY     9   4  80 E12       29.86F WCI  -6
MINOT AFB      CLOUDY     9   6  87 SE12      29.88F WCI  -6
$$

NDZ018>021-031>035-040>046-280900-
SOUTHWEST NORTH DAKOTA

CITY           SKY/WX    TMP DP  RH WIND       PRES   REMARKS
BISMARCK       PTCLDY     7   4  87 E8        29.86F WCI  -6
DICKINSON      MIX PCPN  20  17  88 NE7       29.71R WCI  11
GARRISON         N/A     11   7  84 E12       29.82F WCI  -3
HETTINGER ARPT PTCLDY    23  20  88 NW5       29.72F WCI  17
$$

NDZ004>008-012>016-024-026-027-054-280900-
NORTHEAST NORTH DAKOTA

CITY           SKY/WX    TMP DP  RH WIND       PRES   REMARKS
GRAND FORKS    CLOUDY    10   6  84 SE9       30.06F WCI  -3
GRND FRKS AFB  CLOUDY     9   5  85 SE6       30.06F WCI  -1
DEVILS LAKE    CLOUDY     9  -2  61 SE12      29.93F WCI  -6
$$

NDZ022-023-025-028>030-036>039-047>053-280900-
SOUTHEAST NORTH DAKOTA

CITY           SKY/WX    TMP DP  RH WIND       PRES   REMARKS
FARGO          CLOUDY    12   6  77 SE13      30.03F HAZE    WCI  -3
JAMESTOWN      CLOUDY     7   3  84 SE10      29.91F FOG     WCI  -8
$$



USA.gov is the U.S. government's official web portal to all federal, state and local government web resources and services.